Date String (YYYY-MM-DD hh:mm:ss) UTC,Instrument flags,Ambient pressure (hPa),Sample flow (lpm),Bypass flow (lpm),Sample temperature (°C),Ambient temperature (°C),ASC tube jacket temperature (°C),LED temperature (°C),Box temperature (°C),Sample RH (%),Span deviation,Mass concentration (μg/m³),Mass concentration (μg/m³),Mass concentration (μg/m³)
DateTimeUTC,F1_M11,P_M11,Q1_M11,Q2_M11,T1_M11,T2_M11,T3_M11,T4_M11,T5_M11,U1_M11,ZSPAN_M11,X0_M11,X2_M11,X1_M11
2022-04-25 00:00:00,,0829.0,5.00,0.00,25.5,24.6,00.0,34.7,27.2,15.6,0000.0,0004.06,0000.84,0000.51
2022-04-25 00:01:00,,0829.0,5.00,0.00,25.5,24.6,00.0,34.7,27.2,15.7,0000.0,0002.56,0000.86,0000.51
2022-04-25 00:02:00,,0828.9,5.01,0.00,25.5,24.6,00.0,34.6,27.2,15.6,0000.0,0002.70,0000.88,0000.52
2022-04-25 00:03:00,,0829.0,4.99,0.00,25.4,24.6,00.0,34.6,27.1,15.6,0000.0,0002.72,0000.89,0000.52
2022-04-25 00:04:00,,0829.0,5.00,0.00,25.4,24.6,00.0,34.6,27.1,15.6,0000.0,0001.89,0000.90,0000.54
2022-04-25 00:05:00,,0829.0,4.99,0.00,25.4,24.5,00.0,34.6,27.1,15.6,0000.0,0001.84,0000.90,0000.54
2022-04-25 00:06:00,,0829.0,5.00,0.00,25.4,24.5,00.0,34.5,27.1,15.5,0000.0,0001.82,0000.90,0000.54
2022-04-25 00:07:00,,0829.0,4.99,0.00,25.3,24.5,00.0,34.5,27.0,15.6,0000.0,0001.73,0000.90,0000.54
2022-04-25 00:08:00,,0829.1,5.00,0.00,25.3,24.5,00.0,34.5,27.0,15.7,0000.0,0001.56,0000.89,0000.54
2022-04-25 00:09:00,,0829.0,5.00,0.00,25.3,24.4,00.0,34.5,27.0,15.8,0000.0,0002.59,0000.90,0000.54
2022-04-25 00:10:00,,0829.1,5.00,0.00,25.3,24.4,00.0,34.5,26.9,15.8,0000.0,0002.46,0000.86,0000.54
2022-04-25 00:11:00,,0829.1,5.01,0.00,25.2,24.4,00.0,34.4,26.9,15.8,0000.0,0002.48,0000.87,0000.54
2022-04-25 00:12:00,,0829.1,5.00,0.00,25.2,24.4,00.0,34.4,26.9,15.8,0000.0,0002.45,0000.86,0000.54
2022-04-25 00:13:00,,0829.1,5.00,0.00,25.2,24.4,00.0,34.4,26.9,15.8,0000.0,0002.49,0000.85,0000.54
2022-04-25 00:14:00,,0829.1,5.01,0.00,25.2,24.3,00.0,34.4,26.9,15.8,0000.0,0002.59,0000.88,0000.54
2022-04-25 00:15:00,,0829.2,5.00,0.00,25.2,24.3,00.0,34.3,26.8,15.8,0000.0,0002.63,0000.90,0000.54
2022-04-25 00:16:00,,0829.2,5.00,0.00,25.2,24.3,00.0,34.3,26.8,15.9,0000.0,0002.74,0000.92,0000.54
2022-04-25 00:17:00,,0829.2,4.99,0.00,25.1,24.3,00.0,34.3,26.8,16.0,0000.0,0002.79,0000.93,0000.55
2022-04-25 00:18:00,,0829.3,5.01,0.00,25.1,24.3,00.0,34.3,26.8,15.9,0000.0,0002.83,0000.95,0000.56
2022-04-25 00:19:00,,0829.2,5.00,0.00,25.1,24.2,00.0,34.2,26.8,16.0,0000.0,0002.87,0000.97,0000.57
2022-04-25 00:20:00,,0829.2,5.00,0.00,25.1,24.2,00.0,34.2,26.8,16.0,0000.0,0001.98,0000.94,0000.56
2022-04-25 00:21:00,,0829.2,5.00,0.00,25.1,24.2,00.0,34.2,26.8,16.0,0000.0,0001.89,0000.97,0000.57
2022-04-25 00:22:00,,0829.2,5.00,0.00,25.1,24.2,00.0,34.2,26.8,16.0,0000.0,0001.90,0000.96,0000.57
2022-04-25 00:23:00,,0829.3,5.00,0.00,25.0,24.2,00.0,34.2,26.7,15.9,0000.0,0002.04,0001.01,0000.58
2022-04-25 00:24:00,,0829.3,5.00,0.00,25.0,24.2,00.0,34.2,26.7,15.9,0000.0,0002.07,0001.06,0000.59
2022-04-25 00:25:00,,0829.3,5.01,0.00,25.0,24.2,00.0,34.1,26.7,15.9,0000.0,0001.96,0001.05,0000.59
2022-04-25 00:26:00,,0829.3,5.00,0.00,25.0,24.2,00.0,34.1,26.7,15.9,0000.0,0001.84,0001.00,0000.59
2022-04-25 00:27:00,,0829.3,5.00,0.00,25.0,24.2,00.0,34.1,26.6,15.9,0000.0,0001.80,0001.00,0000.59
2022-04-25 00:28:00,,0829.2,5.00,0.00,25.0,24.2,00.0,34.1,26.7,15.9,0000.0,0001.98,0001.03,0000.60
2022-04-25 00:29:00,,0829.3,4.99,0.00,25.0,24.2,00.0,34.1,26.7,15.8,0000.0,0002.01,0001.03,0000.60
2022-04-25 00:30:00,,0829.2,5.00,0.00,24.9,24.1,00.0,34.1,26.7,15.8,0000.0,0002.01,0001.01,0000.59
2022-04-25 00:31:00,,0829.2,5.00,0.00,24.9,24.1,00.0,34.1,26.6,15.7,0000.0,0002.03,0001.02,0000.60
2022-04-25 00:32:00,,0829.2,5.00,0.00,24.9,24.1,00.0,34.0,26.6,15.7,0000.0,0001.96,0001.01,0000.60
2022-04-25 00:33:00,,0829.2,5.00,0.00,24.9,24.1,00.0,34.0,26.6,15.7,0000.0,0001.87,0000.99,0000.61
2022-04-25 00:34:00,,0829.2,5.00,0.00,24.9,24.1,00.0,34.0,26.6,15.7,0000.0,0001.85,0000.96,0000.61
2022-04-25 00:35:00,,0829.2,5.00,0.00,24.9,24.1,00.0,34.0,26.6,15.8,0000.0,0001.90,0000.92,0000.61
2022-04-25 00:36:00,,0829.2,5.00,0.00,24.9,24.1,00.0,34.0,26.6,15.7,0000.0,0001.89,0000.89,0000.61
2022-04-25 00:37:00,,0829.4,5.00,0.00,24.9,24.0,00.0,34.0,26.6,15.8,0000.0,0001.91,0000.91,0000.61
2022-04-25 00:38:00,,0829.4,5.00,0.00,24.9,24.0,00.0,33.9,26.5,15.8,0000.0,0001.91,0000.91,0000.62
2022-04-25 00:39:00,,0829.2,5.01,0.00,24.9,24.0,00.0,33.9,26.6,15.7,0000.0,0001.70,0000.87,0000.62
2022-04-25 00:40:00,,0829.2,5.00,0.00,24.8,24.0,00.0,33.9,26.5,15.7,0000.0,0001.59,0000.87,0000.63
2022-04-25 00:41:00,,0829.2,5.00,0.00,24.8,24.0,00.0,33.9,26.6,15.6,0000.0,0001.66,0000.87,0000.64
2022-04-25 00:42:00,,0829.3,5.00,0.00,24.8,23.9,00.0,33.9,26.6,15.7,0000.0,0001.68,0000.88,0000.64
2022-04-25 00:43:00,,0829.3,5.00,0.00,24.8,23.9,00.0,33.9,26.5,15.7,0000.0,0001.84,0000.89,0000.64
2022-04-25 00:44:00,,0829.4,4.99,0.00,24.8,23.9,00.0,33.9,26.5,15.8,0000.0,0001.86,0000.90,0000.64
2022-04-25 00:45:00,,0829.4,5.00,0.00,24.7,23.9,00.0,33.9,26.5,15.8,0000.0,0001.76,0000.89,0000.65
2022-04-25 00:46:00,,0829.4,5.00,0.00,24.7,23.8,00.0,33.8,26.5,15.8,0000.0,0001.59,0000.89,0000.65
2022-04-25 00:47:00,,0829.4,5.01,0.00,24.7,23.8,00.0,33.8,26.4,15.8,0000.0,0001.52,0000.90,0000.65
2022-04-25 00:48:00,,0829.4,5.01,0.00,24.7,23.8,00.0,33.8,26.4,15.8,0000.0,0001.58,0000.92,0000.65
2022-04-25 00:49:00,,0829.4,5.00,0.00,24.7,23.8,00.0,33.8,26.4,15.8,0000.0,0001.62,0000.93,0000.65
2022-04-25 00:50:00,,0829.4,5.00,0.00,24.7,23.8,00.0,33.8,26.4,15.9,0000.0,0001.62,0000.93,0000.65
2022-04-25 00:51:00,,0829.3,5.00,0.00,24.7,23.8,00.0,33.8,26.4,16.0,0000.0,0001.56,0000.90,0000.64
2022-04-25 00:52:00,,0829.3,4.99,0.00,24.6,23.8,00.0,33.8,26.3,16.0,0000.0,0001.60,0000.91,0000.64
2022-04-25 00:53:00,,0829.3,5.00,0.00,24.6,23.8,00.0,33.7,26.3,16.1,0000.0,0001.64,0000.91,0000.65
2022-04-25 00:54:00,,0829.4,4.99,0.00,24.6,23.7,00.0,33.7,26.3,16.1,0000.0,0001.48,0000.89,0000.66
2022-04-25 00:55:00,,0829.3,5.00,0.00,24.6,23.7,00.0,33.7,26.3,16.1,0000.0,0001.49,0000.89,0000.66
2022-04-25 00:56:00,,0829.5,5.00,0.00,24.5,23.7,00.0,33.7,26.2,16.1,0000.0,0001.52,0000.90,0000.67
2022-04-25 00:57:00,,0829.5,5.00,0.00,24.5,23.6,00.0,33.7,26.2,16.2,0000.0,0001.58,0000.92,0000.67
2022-04-25 00:58:00,,0829.5,4.99,0.00,24.5,23.6,00.0,33.7,26.2,16.2,0000.0,0001.62,0000.93,0000.68
2022-04-25 00:59:00,,0829.5,5.00,0.00,24.5,23.6,00.0,33.6,26.2,16.2,0000.0,0001.62,0000.94,0000.70
